Change the Weather History Date:

Tuesday, September 2, 2014

  Actual Average Record
Temperature  
Mean Temperature 70 °F -  
Max Temperature 86 °F 73 °F 88 °F (1999)
Min Temperature 55 °F 43 °F 33 °F (2007)
Cooling Degree Days 4    
Growing Degree Days 20 (Base 50)    
Moisture  
Dew Point 63 °F    
Average Humidity 78    
Maximum Humidity 93    
Minimum Humidity 53    
Precipitation  
Precipitation 0.92 in - - ()
Sea Level Pressure  
Sea Level Pressure 29.82 in    
Wind  
Wind Speed 3 mph (West)    
Max Wind Speed 14 mph    
Max Gust Speed 20 mph    
Visibility 7 miles    
Events Rain , Thunderstorm    
Averages and records for this station are not official NWS values.
T = Trace of Precipitation, MM = Missing Value Source: NWS Daily Summary

Daily Weather History Graph

Daily Weather History Graph

Search for Another Location

Airport or City:

Trip Planner

Search our weather history database for the weather conditions in past years. The results will help you decide how hot, cold, wet, or windy it might be!

Date:

Astronomy

Sep. 02, 2014 Rise Set
Actual Time 6:10 AM EDT 7:20 PM EDT
Civil Twilight 5:40 AM EDT 7:50 PM EDT
Nautical Twilight 5:04 AM EDT 8:26 PM EDT
Astronomical Twilight 4:26 AM EDT 9:03 PM EDT
Moon 2:07 PM EDT (9/2) 11:55 PM EDT (9/2)
Length of Visible Light 14h 10m
Length of Day
13h 10m
First Quarter, 52% of the Moon is Illuminated
Sep 2
First Quarter
Sep 8
Full
Sep 15
Last Quarter
Sep 24
New
Oct 1
First Quarter

Hourly Weather History & Observations

Time (EDT) Temp. Heat Index Dew Point Humidity Pressure Visibility Wind Dir Wind Speed Gust Speed Precip Events Conditions
12:52 AM 57.9 °F - 55.9 °F 93% 29.94 in 7.0 mi Calm Calm - N/A   Clear
1:52 AM 57.0 °F - 54.0 °F 89% 29.93 in 7.0 mi Calm Calm - N/A   Clear
2:52 AM 55.9 °F - 54.0 °F 93% 29.91 in 3.0 mi Calm Calm - N/A   Clear
3:52 AM 57.0 °F - 55.0 °F 93% 29.91 in 8.0 mi Calm Calm - 0.00 in Rain Light Rain
4:52 AM 55.9 °F - 54.0 °F 93% 29.90 in 7.0 mi Calm Calm - 0.00 in   Clear
5:52 AM 55.9 °F - 53.1 °F 90% 29.90 in 8.0 mi Calm Calm - N/A   Clear
6:52 AM 57.9 °F - 55.0 °F 90% 29.92 in 8.0 mi Calm Calm - N/A   Mostly Cloudy
7:52 AM 62.1 °F - 59.0 °F 90% 29.91 in 8.0 mi Calm Calm - N/A   Scattered Clouds
8:52 AM 68.0 °F - 62.1 °F 81% 29.91 in 10.0 mi Calm Calm - N/A   Mostly Cloudy
9:52 AM 75.0 °F - 64.9 °F 71% 29.91 in 10.0 mi WNW 4.6 mph - N/A   Clear
10:52 AM 81.0 °F 83.3 °F 66.9 °F 62% 29.87 in 10.0 mi Variable 3.5 mph - N/A   Clear
11:52 AM 84.0 °F 85.8 °F 64.9 °F 53% 29.86 in 10.0 mi SW 9.2 mph - N/A   Scattered Clouds
12:52 PM 82.9 °F 84.6 °F 64.9 °F 54% 29.83 in 10.0 mi WSW 8.1 mph 17.3 mph N/A   Clear
1:52 PM 84.9 °F 87.6 °F 66.9 °F 55% 29.81 in 10.0 mi WSW 10.4 mph 16.1 mph N/A   Clear
2:52 PM 84.0 °F 86.3 °F 66.0 °F 55% 29.81 in 10.0 mi SW 11.5 mph 18.4 mph N/A   Clear
3:52 PM 84.0 °F 86.5 °F 66.9 °F 56% 29.79 in 10.0 mi SSW 8.1 mph - N/A   Partly Cloudy
4:52 PM 82.0 °F 83.8 °F 64.9 °F 56% 29.78 in 10.0 mi North - - N/A   Clear
5:52 PM 82.9 °F 84.6 °F 64.9 °F 54% 29.77 in 10.0 mi SW 4.6 mph - N/A   Clear
6:52 PM 79.0 °F - 64.9 °F 62% 29.76 in 10.0 mi WSW 5.8 mph - N/A   Clear
7:52 PM 73.0 °F - 66.9 °F 81% 29.74 in 10.0 mi Calm Calm - N/A   Clear
8:52 PM 71.1 °F - 66.0 °F 84% 29.74 in 10.0 mi Calm Calm - N/A   Clear
9:52 PM 69.1 °F - 64.9 °F 87% 29.74 in 9.0 mi Calm Calm - N/A   Partly Cloudy
11:12 PM 69.1 °F - 66.0 °F 90% 29.73 in 2.5 mi West 4.6 mph - 0.05 in Rain , Thunderstorm Heavy Rain
11:20 PM 69.1 °F - 66.9 °F 93% 29.72 in 1.2 mi NNW 12.7 mph - 0.17 in Rain , Thunderstorm Heavy Rain
11:29 PM 70.0 °F - 66.9 °F 90% 29.71 in 1.2 mi NNW 13.8 mph - 0.44 in Rain , Thunderstorm Heavy Thunderstorms and Rain
11:41 PM 69.1 °F - 66.9 °F 93% 29.73 in 1.8 mi NNW 5.8 mph - 0.62 in Rain , Thunderstorm Heavy Rain
11:47 PM 69.8 °F - 66.2 °F 88% 29.74 in 1.0 mi NW 13.8 mph 19.6 mph 0.84 in Rain , Thunderstorm Heavy Rain
11:52 PM 69.1 °F - 66.0 °F 90% 29.73 in 1.0 mi Variable 4.6 mph 19.6 mph 0.92 in Rain Heavy Rain